Location: Buckeye Ditch
(40.9104°N, 122.9517°W)
Time: 12:24:18
(UTC+00:00)

Explorer 7 - Pass Details

Date: 28 May 2025
Orbit: 445 x 571 km, 50.3° (Epoch: 22 June)

Event Time Altitude Azimuth Distance (km) Brightness Sun altitude
Rises 05:57:59 0° 196° (SSW) 2,420 - -20.5°
Reaches altitude 10° 06:00:34 10° 176° (S) 1,559 - -20.8°
Maximum altitude 06:02:58 17° 133° (SE) 1,188 - -21.0°
Drops below altitude 10° 06:05:24 10° 89° (E) 1,586 - -21.3°
Sets 06:08:04 0° 70° (ENE) 2,481 - -21.5°
